Location: Bazugues
(43.4465°N, 0.3432°E)
Time: 16:00:25
(UTC+00:00)

CARTOSAT-1 - Pass Details

Date: 12 January 2026
Orbit: 594 x 598 km, 97.5° (Epoch: 18 February)

Event Time Altitude Azimuth Distance (km) Brightness Sun altitude
Rises 18:28:22 0° 156° (SSE) 2,830 6.8 -18.4°
Reaches altitude 10° 18:30:32 10° 152° (SSE) 1,932 5.9 -18.8°
Maximum altitude 18:34:40 57° 74° (ENE) 705 3.4 -19.5°
Drops below altitude 10° 18:38:48 10° 356° (N) 1,947 6.0 -20.2°
Sets 18:41:00 0° 352° (N) 2,854 6.9 -20.6°
